EZY47TM EGGD-LXGB

Flight info

Callsign EZY47TM
Flight time 2h 19m
Altitude 34000
Route EXMOR N92 DAWLY N864 BHD DCT SALCO DCT NOVAN/N0444F350 DCT DELOG/N0446F370 DCT CRISA DCT VULPE DCT MAR N864 PIMOS
Aircraft A320/M-SDE2E3FGHIJ1RWXYZ/LB1

Departure

Time 2026-05-04 18:54
Airport Bristol Airport (EGGD)

Arrival

Time 2026-05-04 21:13
Airport Gibraltar Airport (LXGB)
Time Latitude Longitude Altitude Speed Heading
2026-05-04 18:32 51.38486 -2.71957 607 ft 0 kts 266°
2026-05-04 18:45 51.38485 -2.71967 607 ft 2 kts 267°
2026-05-04 18:45 51.38481 -2.72009 621 ft 5 kts 244°
2026-05-04 18:45 51.38456 -2.72025 613 ft 1 kts 195°
2026-05-04 18:45 51.38442 -2.72036 616 ft 3 kts 211°
2026-05-04 18:46 51.38432 -2.72065 619 ft 3 kts 253°
2026-05-04 18:46 51.38430 -2.72087 611 ft 1 kts 262°
2026-05-04 18:46 51.38430 -2.72090 612 ft 0 kts 264°
2026-05-04 18:47 51.38430 -2.72091 618 ft 0 kts 265°
2026-05-04 18:47 51.38430 -2.72103 613 ft 2 kts 266°
2026-05-04 18:47 51.38429 -2.72129 616 ft 3 kts 266°
2026-05-04 18:47 51.38427 -2.72158 606 ft 3 kts 265°
2026-05-04 18:48 51.38426 -2.72185 610 ft 2 kts 266°
2026-05-04 18:48 51.38426 -2.72190 612 ft 0 kts 266°
2026-05-04 18:48 51.38425 -2.72216 619 ft 6 kts 266°
2026-05-04 18:48 51.38423 -2.72301 609 ft 9 kts 268°
2026-05-04 18:49 51.38419 -2.72436 611 ft 15 kts 266°
2026-05-04 18:49 51.38412 -2.72642 617 ft 22 kts 265°
2026-05-04 18:49 51.38399 -2.72925 605 ft 27 kts 265°
2026-05-04 18:49 51.38390 -2.73148 607 ft 13 kts 266°
2026-05-04 18:50 51.38390 -2.73159 608 ft 0 kts 266°
2026-05-04 18:50 51.38389 -2.73162 608 ft 2 kts 266°
2026-05-04 18:50 51.38387 -2.73206 609 ft 6 kts 265°
2026-05-04 18:51 51.38365 -2.73297 620 ft 11 kts 233°
2026-05-04 18:51 51.38287 -2.73346 618 ft 14 kts 180°
2026-05-04 18:51 51.38215 -2.73250 628 ft 14 kts 87°
2026-05-04 18:51 51.38216 -2.73240 627 ft 0 kts 87°
2026-05-04 18:53 51.38220 -2.73125 629 ft 42 kts 86°
2026-05-04 18:53 51.38256 -2.72212 627 ft 120 kts 86°
2026-05-04 18:54 51.38500 -2.70643 784 ft 162 kts 62°
2026-05-04 18:54 51.38886 -2.68945 1494 ft 163 kts 78°
2026-05-04 18:54 51.38972 -2.66954 2004 ft 186 kts 100°
2026-05-04 18:54 51.38297 -2.65273 3013 ft 181 kts 142°
2026-05-04 18:55 51.37094 -2.64816 3657 ft 186 kts 189°
2026-05-04 18:55 51.35167 -2.67711 4313 ft 219 kts 246°
2026-05-04 18:55 51.34600 -2.70023 4784 ft 227 kts 252°
2026-05-04 18:56 51.34266 -2.71676 4961 ft 245 kts 252°
2026-05-04 18:56 51.33710 -2.74343 5524 ft 255 kts 252°
2026-05-04 18:56 51.33152 -2.77055 6383 ft 257 kts 250°
2026-05-04 18:56 51.32499 -2.79715 7188 ft 258 kts 245°
2026-05-04 18:57 51.31742 -2.82291 8141 ft 251 kts 243°
2026-05-04 18:57 51.30976 -2.84743 9141 ft 244 kts 241°
2026-05-04 18:57 51.30201 -2.87114 10032 ft 242 kts 243°
2026-05-04 18:57 51.29466 -2.89566 10586 ft 248 kts 242°
2026-05-04 18:58 51.28662 -2.91989 11346 ft 245 kts 242°
2026-05-04 18:58 51.27944 -2.94441 12082 ft 244 kts 238°
2026-05-04 18:58 51.26846 -2.96521 12468 ft 255 kts 214°
2026-05-04 18:58 51.25269 -2.98056 12651 ft 277 kts 210°
2026-05-04 18:59 51.23557 -2.99730 12858 ft 300 kts 211°
2026-05-04 18:59 51.21772 -3.01512 13843 ft 301 kts 211°
2026-05-04 18:59 51.20000 -3.03254 14891 ft 299 kts 210°
2026-05-04 18:59 51.18214 -3.04884 15993 ft 293 kts 205°
2026-05-04 19:00 51.16348 -3.06018 17160 ft 283 kts 195°
2026-05-04 19:00 51.14426 -3.06812 17979 ft 288 kts 193°
2026-05-04 19:00 51.12437 -3.07533 18528 ft 300 kts 191°
2026-05-04 19:00 51.10375 -3.08171 19245 ft 300 kts 190°
2026-05-04 19:01 51.08336 -3.08707 20195 ft 295 kts 188°
2026-05-04 19:01 51.06318 -3.09103 21101 ft 289 kts 186°
2026-05-04 19:01 51.04317 -3.09459 21858 ft 292 kts 186°
2026-05-04 19:01 51.02266 -3.09861 22179 ft 306 kts 191°
2026-05-04 19:02 51.00129 -3.10677 22343 ft 326 kts 195°
2026-05-04 19:02 50.97896 -3.11712 22473 ft 341 kts 196°
2026-05-04 19:02 50.95575 -3.12776 22599 ft 353 kts 195°
2026-05-04 19:02 50.93193 -3.13780 22752 ft 364 kts 194°
2026-05-04 19:03 50.90658 -3.14749 22886 ft 375 kts 193°
2026-05-04 19:03 50.88108 -3.15645 23030 ft 385 kts 192°
2026-05-04 19:03 50.85454 -3.16524 23171 ft 395 kts 191°
2026-05-04 19:03 50.82734 -3.17399 23320 ft 403 kts 191°
2026-05-04 19:04 50.79955 -3.18291 23461 ft 411 kts 191°
2026-05-04 19:04 50.77131 -3.19213 23597 ft 418 kts 191°
2026-05-04 19:04 50.74259 -3.20161 23720 ft 425 kts 191°
2026-05-04 19:04 50.71345 -3.21132 23838 ft 431 kts 191°
2026-05-04 19:05 50.68395 -3.22116 23954 ft 436 kts 191°
2026-05-04 19:05 50.65408 -3.23109 24076 ft 441 kts 191°
2026-05-04 19:05 50.62398 -3.24110 24280 ft 443 kts 191°
2026-05-04 19:05 50.59387 -3.25113 24612 ft 442 kts 191°
2026-05-04 19:06 50.56381 -3.26112 24960 ft 441 kts 191°
2026-05-04 19:06 50.53379 -3.27103 25278 ft 441 kts 191°
2026-05-04 19:06 50.50378 -3.28089 25616 ft 440 kts 190°
2026-05-04 19:06 50.47382 -3.29074 25978 ft 439 kts 190°
2026-05-04 19:07 50.44400 -3.30053 26347 ft 438 kts 190°
2026-05-04 19:07 50.41423 -3.31034 26715 ft 436 kts 190°
2026-05-04 19:07 50.38457 -3.32012 27086 ft 435 kts 190°
2026-05-04 19:07 50.35496 -3.32986 27466 ft 434 kts 190°
2026-05-04 19:08 50.32543 -3.33956 27838 ft 433 kts 189°
2026-05-04 19:08 50.29597 -3.34918 28220 ft 432 kts 189°
2026-05-04 19:08 50.26662 -3.35874 28610 ft 430 kts 189°
2026-05-04 19:08 50.23733 -3.36824 28998 ft 429 kts 189°
2026-05-04 19:09 50.20815 -3.37771 29385 ft 428 kts 189°
2026-05-04 19:09 50.17906 -3.38714 29774 ft 426 kts 189°
2026-05-04 19:09 50.15006 -3.39654 30152 ft 425 kts 189°
2026-05-04 19:09 50.12110 -3.40597 30433 ft 425 kts 189°
2026-05-04 19:10 50.09209 -3.41544 30668 ft 427 kts 189°
2026-05-04 19:10 50.06302 -3.42490 30897 ft 428 kts 189°
2026-05-04 19:10 50.03386 -3.43433 31139 ft 429 kts 189°
2026-05-04 19:10 50.00459 -3.44377 31358 ft 430 kts 189°
2026-05-04 19:11 49.97529 -3.45317 31599 ft 431 kts 189°
2026-05-04 19:11 49.94592 -3.46255 31839 ft 432 kts 189°
2026-05-04 19:11 49.91645 -3.47195 32079 ft 433 kts 189°
2026-05-04 19:11 49.88697 -3.48140 32319 ft 433 kts 190°
2026-05-04 19:12 49.85778 -3.49078 32554 ft 434 kts 190°
2026-05-04 19:12 49.79847 -3.50990 33020 ft 436 kts 190°
2026-05-04 19:12 49.76877 -3.51943 33253 ft 437 kts 190°
2026-05-04 19:13 49.73845 -3.52824 33484 ft 437 kts 185°
2026-05-04 19:13 49.70812 -3.53125 33713 ft 437 kts 181°
2026-05-04 19:13 49.67808 -3.53276 33955 ft 438 kts 181°
2026-05-04 19:13 49.64722 -3.53433 34188 ft 438 kts 181°
2026-05-04 19:14 49.61680 -3.53592 34400 ft 438 kts 181°
2026-05-04 19:14 49.58628 -3.53754 34610 ft 439 kts 181°
2026-05-04 19:14 49.55581 -3.53919 34810 ft 439 kts 181°
2026-05-04 19:14 49.52524 -3.54083 35010 ft 439 kts 181°
2026-05-04 19:15 49.49470 -3.54243 35204 ft 440 kts 181°
2026-05-04 19:15 49.46451 -3.54399 35393 ft 440 kts 181°
2026-05-04 19:15 49.43353 -3.54555 35589 ft 440 kts 181°
2026-05-04 19:15 49.40332 -3.54708 35772 ft 440 kts 181°
2026-05-04 19:16 49.37274 -3.54866 35950 ft 440 kts 181°
2026-05-04 19:16 49.34211 -3.55028 36125 ft 441 kts 181°
2026-05-04 19:16 49.31147 -3.55191 36287 ft 441 kts 181°
2026-05-04 19:16 49.28079 -3.55353 36458 ft 441 kts 181°
2026-05-04 19:17 49.25007 -3.55512 36588 ft 442 kts 181°
2026-05-04 19:17 49.21925 -3.55672 36724 ft 443 kts 181°
2026-05-04 19:17 49.18844 -3.55834 36881 ft 443 kts 181°
2026-05-04 19:17 49.15756 -3.55998 36992 ft 445 kts 181°
2026-05-04 19:18 49.12653 -3.56158 37004 ft 448 kts 181°
2026-05-04 19:18 49.06391 -3.56469 37019 ft 451 kts 181°
2026-05-04 19:19 49.00106 -3.56797 37018 ft 452 kts 181°
2026-05-04 19:19 48.93828 -3.57128 37025 ft 451 kts 181°
2026-05-04 19:20 48.87551 -3.57453 37019 ft 451 kts 181°
2026-05-04 19:20 48.81270 -3.57771 37033 ft 452 kts 181°
2026-05-04 19:21 48.74985 -3.58088 37034 ft 452 kts 181°
2026-05-04 19:21 48.68699 -3.58411 37038 ft 452 kts 181°
2026-05-04 19:22 48.62416 -3.58737 37032 ft 452 kts 181°
2026-05-04 19:22 48.56131 -3.59057 37028 ft 452 kts 181°
2026-05-04 19:23 48.49840 -3.59374 37014 ft 453 kts 181°
2026-05-04 19:23 48.43586 -3.59684 37011 ft 453 kts 181°
2026-05-04 19:24 48.37290 -3.59994 37020 ft 453 kts 181°
2026-05-04 19:24 48.30990 -3.60311 37014 ft 453 kts 181°
2026-05-04 19:25 48.24689 -3.60630 37001 ft 453 kts 181°
2026-05-04 19:25 48.18381 -3.60951 37009 ft 454 kts 181°
2026-05-04 19:26 48.12069 -3.61265 37009 ft 453 kts 181°
2026-05-04 19:26 48.05768 -3.61581 37004 ft 453 kts 182°
2026-05-04 19:27 47.99466 -3.61900 37010 ft 453 kts 181°
2026-05-04 19:27 47.93163 -3.62212 37013 ft 453 kts 182°
2026-05-04 19:28 47.86868 -3.62516 37014 ft 452 kts 182°
2026-05-04 19:28 47.80578 -3.62828 37020 ft 452 kts 182°
2026-05-04 19:29 47.74287 -3.63143 37021 ft 452 kts 182°
2026-05-04 19:29 47.68046 -3.63447 37018 ft 451 kts 182°
2026-05-04 19:30 47.61772 -3.63750 37021 ft 451 kts 182°
2026-05-04 19:30 47.55502 -3.64054 37020 ft 451 kts 182°
2026-05-04 19:31 47.49236 -3.64359 37023 ft 450 kts 182°
2026-05-04 19:31 47.42987 -3.64659 37019 ft 449 kts 182°
2026-05-04 19:32 47.36750 -3.64962 37022 ft 448 kts 182°
2026-05-04 19:32 47.30516 -3.65258 37019 ft 448 kts 181°
2026-05-04 19:33 47.24277 -3.65557 37010 ft 448 kts 181°
2026-05-04 19:33 47.18042 -3.65857 37014 ft 449 kts 181°
2026-05-04 19:34 47.11802 -3.66163 37020 ft 449 kts 182°
2026-05-04 19:34 47.05558 -3.66462 37016 ft 449 kts 182°
2026-05-04 19:35 46.99313 -3.66758 37010 ft 449 kts 182°
2026-05-04 19:35 46.93062 -3.67052 37011 ft 449 kts 182°
2026-05-04 19:36 46.86857 -3.67345 37031 ft 449 kts 182°
2026-05-04 19:36 46.80619 -3.67642 37021 ft 449 kts 182°
2026-05-04 19:37 46.74374 -3.67944 37023 ft 449 kts 182°
2026-05-04 19:37 46.68127 -3.68244 37017 ft 449 kts 182°
2026-05-04 19:38 46.61886 -3.68537 37020 ft 449 kts 182°
2026-05-04 19:38 46.55637 -3.68831 37018 ft 449 kts 182°
2026-05-04 19:39 46.49383 -3.69121 37023 ft 450 kts 182°
2026-05-04 19:39 46.43130 -3.69420 37022 ft 450 kts 182°
2026-05-04 19:40 46.36876 -3.69717 37029 ft 450 kts 182°
2026-05-04 19:40 46.30627 -3.70045 37028 ft 449 kts 184°
2026-05-04 19:41 46.24405 -3.70865 37030 ft 449 kts 187°
2026-05-04 19:41 46.18207 -3.71950 37030 ft 449 kts 187°
2026-05-04 19:42 46.12002 -3.72984 37022 ft 448 kts 186°
2026-05-04 19:42 46.05837 -3.73895 37018 ft 448 kts 186°
2026-05-04 19:43 45.99627 -3.74775 37032 ft 448 kts 186°
2026-05-04 19:43 45.93423 -3.75679 37027 ft 448 kts 186°
2026-05-04 19:44 45.87227 -3.76599 37030 ft 448 kts 186°
2026-05-04 19:44 45.81027 -3.77530 37028 ft 448 kts 186°
2026-05-04 19:45 45.74831 -3.78443 37021 ft 447 kts 186°
2026-05-04 19:45 45.69641 -3.79190 37017 ft 447 kts 186°
2026-05-04 19:46 45.63448 -3.80084 37025 ft 447 kts 186°
2026-05-04 19:46 45.57259 -3.80989 37026 ft 447 kts 187°
2026-05-04 19:47 45.51074 -3.81901 37033 ft 447 kts 187°
2026-05-04 19:47 45.44889 -3.82810 37033 ft 447 kts 187°
2026-05-04 19:48 45.38745 -3.83699 37025 ft 447 kts 187°
2026-05-04 19:48 45.32562 -3.84580 37036 ft 447 kts 187°
2026-05-04 19:49 45.26376 -3.85470 37028 ft 447 kts 187°
2026-05-04 19:49 45.20190 -3.86373 37044 ft 447 kts 187°
2026-05-04 19:50 45.14003 -3.87272 37035 ft 447 kts 187°
2026-05-04 19:50 45.07808 -3.88152 37026 ft 448 kts 187°
2026-05-04 19:51 45.01603 -3.89035 37033 ft 448 kts 187°
2026-05-04 19:51 44.95396 -3.89921 37039 ft 448 kts 187°
2026-05-04 19:52 44.89197 -3.90807 37030 ft 448 kts 187°
2026-05-04 19:52 44.82989 -3.91699 37043 ft 448 kts 187°
2026-05-04 19:53 44.76787 -3.92589 37044 ft 448 kts 187°
2026-05-04 19:53 44.70584 -3.93460 37046 ft 448 kts 187°
2026-05-04 19:54 44.64382 -3.94330 37044 ft 448 kts 187°
2026-05-04 19:54 44.58181 -3.95199 37044 ft 448 kts 187°
2026-05-04 19:55 44.52020 -3.96070 37038 ft 448 kts 187°
2026-05-04 19:55 44.45820 -3.96945 37043 ft 448 kts 187°
2026-05-04 19:56 44.39624 -3.97809 37043 ft 448 kts 187°
2026-05-04 19:56 44.33424 -3.98668 37040 ft 447 kts 187°
2026-05-04 19:57 44.27222 -3.99456 37044 ft 448 kts 186°
2026-05-04 19:57 44.21011 -4.00142 37049 ft 448 kts 186°
2026-05-04 19:58 44.14797 -4.00821 37036 ft 448 kts 186°
2026-05-04 19:58 44.08586 -4.01523 37041 ft 448 kts 187°
2026-05-04 19:59 44.02372 -4.02236 37045 ft 448 kts 187°
2026-05-04 19:59 43.96157 -4.02946 37048 ft 448 kts 187°
2026-05-04 20:00 43.89939 -4.03648 37050 ft 448 kts 187°
2026-05-04 20:00 43.83722 -4.04349 37056 ft 448 kts 187°
2026-05-04 20:01 43.77509 -4.05057 37056 ft 448 kts 187°
2026-05-04 20:01 43.71296 -4.05760 37057 ft 448 kts 187°
2026-05-04 20:02 43.65086 -4.06451 37062 ft 447 kts 187°
2026-05-04 20:02 43.58884 -4.07148 37067 ft 447 kts 187°
2026-05-04 20:03 43.52722 -4.07837 37057 ft 447 kts 187°
2026-05-04 20:03 43.46523 -4.08532 37068 ft 447 kts 187°
2026-05-04 20:04 43.40281 -4.09223 37070 ft 447 kts 187°
2026-05-04 20:04 43.34121 -4.09908 37067 ft 447 kts 188°
2026-05-04 20:05 43.27917 -4.10608 37070 ft 447 kts 187°
2026-05-04 20:05 43.21712 -4.11291 37074 ft 448 kts 187°
2026-05-04 20:06 43.15501 -4.11979 37084 ft 448 kts 187°
2026-05-04 20:06 43.09294 -4.12668 37066 ft 447 kts 188°
2026-05-04 20:07 43.03086 -4.13358 37072 ft 448 kts 188°
2026-05-04 20:07 42.96869 -4.14037 37077 ft 448 kts 188°
2026-05-04 20:08 42.90655 -4.14715 37068 ft 448 kts 188°
2026-05-04 20:08 42.84439 -4.15390 37077 ft 448 kts 188°
2026-05-04 20:09 42.78221 -4.16067 37077 ft 448 kts 188°
2026-05-04 20:09 42.72010 -4.16754 37078 ft 448 kts 188°
2026-05-04 20:10 42.65792 -4.17436 37074 ft 448 kts 188°
2026-05-04 20:10 42.59577 -4.18106 37065 ft 448 kts 188°
2026-05-04 20:11 42.53362 -4.18778 37044 ft 448 kts 189°
2026-05-04 20:11 42.47150 -4.19451 37053 ft 448 kts 189°
2026-05-04 20:12 42.40935 -4.20120 37052 ft 448 kts 189°
2026-05-04 20:12 42.34721 -4.20789 37048 ft 448 kts 188°
2026-05-04 20:13 42.28502 -4.21456 37037 ft 448 kts 189°
2026-05-04 20:13 42.22291 -4.22126 37043 ft 448 kts 189°
2026-05-04 20:14 42.16080 -4.22788 37043 ft 448 kts 189°
2026-05-04 20:14 42.09867 -4.23448 37023 ft 447 kts 189°
2026-05-04 20:15 42.03666 -4.24112 37036 ft 447 kts 189°
2026-05-04 20:15 41.97471 -4.24775 37048 ft 447 kts 189°
2026-05-04 20:16 41.91274 -4.25437 37039 ft 447 kts 189°
2026-05-04 20:16 41.85077 -4.26092 37018 ft 446 kts 189°
2026-05-04 20:17 41.78885 -4.26746 37034 ft 446 kts 189°
2026-05-04 20:17 41.72700 -4.27398 37030 ft 446 kts 189°
2026-05-04 20:18 41.66514 -4.28041 37011 ft 445 kts 190°
2026-05-04 20:18 41.60340 -4.28695 37021 ft 445 kts 190°
2026-05-04 20:19 41.54174 -4.29349 37026 ft 444 kts 190°
2026-05-04 20:19 41.48012 -4.30000 37001 ft 444 kts 190°
2026-05-04 20:20 41.41902 -4.30640 37018 ft 443 kts 190°
2026-05-04 20:20 41.35757 -4.31276 37025 ft 443 kts 190°
2026-05-04 20:21 41.29617 -4.31912 37028 ft 442 kts 190°
2026-05-04 20:21 41.20416 -4.32881 37016 ft 442 kts 191°
2026-05-04 20:22 41.14287 -4.33518 37023 ft 442 kts 191°
2026-05-04 20:22 41.08159 -4.34152 37026 ft 442 kts 191°
2026-05-04 20:23 41.02031 -4.34782 37003 ft 442 kts 191°
2026-05-04 20:23 40.95903 -4.35407 37020 ft 442 kts 191°
2026-05-04 20:24 40.89775 -4.36038 37024 ft 442 kts 191°
2026-05-04 20:24 40.83649 -4.36671 37022 ft 442 kts 191°
2026-05-04 20:25 40.77523 -4.37308 37011 ft 442 kts 191°
2026-05-04 20:25 40.71397 -4.37939 37021 ft 441 kts 191°
2026-05-04 20:26 40.65272 -4.38560 37026 ft 441 kts 191°
2026-05-04 20:26 40.59143 -4.39179 37027 ft 441 kts 191°
2026-05-04 20:27 40.53020 -4.39799 37022 ft 441 kts 191°
2026-05-04 20:27 40.46896 -4.40419 37020 ft 441 kts 191°
2026-05-04 20:28 40.40774 -4.41048 37020 ft 441 kts 191°
2026-05-04 20:28 40.34697 -4.41672 36987 ft 441 kts 191°
2026-05-04 20:29 40.28577 -4.42297 37001 ft 441 kts 191°
2026-05-04 20:29 40.22456 -4.42914 37006 ft 441 kts 191°
2026-05-04 20:30 40.16334 -4.43525 36980 ft 441 kts 191°
2026-05-04 20:30 40.10218 -4.44133 36995 ft 441 kts 192°
2026-05-04 20:31 40.04101 -4.44749 37000 ft 441 kts 192°
2026-05-04 20:31 39.97984 -4.45366 37004 ft 441 kts 192°
2026-05-04 20:32 39.91869 -4.45977 36972 ft 441 kts 192°
2026-05-04 20:32 39.86785 -4.46480 36989 ft 441 kts 192°
2026-05-04 20:33 39.80670 -4.47092 37006 ft 440 kts 192°
2026-05-04 20:33 39.74558 -4.47710 37017 ft 441 kts 192°
2026-05-04 20:34 39.68448 -4.48314 36995 ft 440 kts 192°
2026-05-04 20:34 39.62338 -4.48914 37007 ft 440 kts 192°
2026-05-04 20:35 39.56226 -4.49515 37016 ft 441 kts 192°
2026-05-04 20:35 39.50113 -4.50120 37020 ft 440 kts 192°
2026-05-04 20:36 39.44004 -4.50731 36994 ft 440 kts 192°
2026-05-04 20:36 39.37898 -4.51344 37009 ft 440 kts 192°
2026-05-04 20:37 39.31793 -4.51939 37021 ft 440 kts 192°
2026-05-04 20:37 39.25682 -4.52533 36995 ft 440 kts 192°
2026-05-04 20:38 39.19579 -4.53141 37016 ft 440 kts 193°
2026-05-04 20:38 39.13475 -4.53737 37023 ft 440 kts 192°
2026-05-04 20:39 39.07418 -4.54321 37025 ft 439 kts 192°
2026-05-04 20:39 39.01322 -4.54904 36989 ft 439 kts 193°
2026-05-04 20:40 38.95226 -4.55491 37007 ft 439 kts 193°
2026-05-04 20:40 38.89190 -4.56367 37020 ft 434 kts 197°
2026-05-04 20:41 38.83257 -4.57696 37031 ft 432 kts 199°
2026-05-04 20:41 38.77340 -4.59079 37015 ft 433 kts 198°
2026-05-04 20:42 38.71394 -4.60363 37027 ft 434 kts 198°
2026-05-04 20:42 38.65428 -4.61578 37036 ft 434 kts 197°
2026-05-04 20:43 38.59465 -4.62786 37041 ft 434 kts 198°
2026-05-04 20:43 38.53511 -4.64016 37007 ft 433 kts 198°
2026-05-04 20:44 38.47562 -4.65249 37027 ft 433 kts 198°
2026-05-04 20:44 38.41611 -4.66478 37037 ft 433 kts 198°
2026-05-04 20:45 38.35662 -4.67695 37043 ft 433 kts 198°
2026-05-04 20:45 38.29716 -4.68915 37045 ft 433 kts 198°
2026-05-04 20:46 38.23773 -4.70138 37046 ft 433 kts 198°
2026-05-04 20:46 38.17825 -4.71349 37043 ft 433 kts 198°
2026-05-04 20:47 38.11884 -4.72567 37050 ft 433 kts 198°
2026-05-04 20:47 38.05973 -4.73779 37013 ft 433 kts 198°
2026-05-04 20:48 38.00024 -4.74990 37027 ft 433 kts 198°
2026-05-04 20:48 37.94069 -4.76205 37035 ft 433 kts 198°
2026-05-04 20:49 37.88114 -4.77419 37040 ft 433 kts 198°
2026-05-04 20:49 37.82163 -4.78625 37002 ft 433 kts 198°
2026-05-04 20:50 37.76208 -4.79821 37013 ft 433 kts 198°
2026-05-04 20:50 37.70252 -4.81024 37029 ft 434 kts 198°
2026-05-04 20:51 37.64294 -4.82228 37036 ft 434 kts 198°
2026-05-04 20:51 37.58330 -4.83426 37015 ft 434 kts 198°
2026-05-04 20:52 37.52414 -4.84612 37028 ft 434 kts 198°
2026-05-04 20:52 37.46476 -4.85807 37044 ft 434 kts 198°
2026-05-04 20:53 37.40507 -4.87012 37055 ft 434 kts 198°
2026-05-04 20:53 37.34561 -4.88206 37048 ft 431 kts 198°
2026-05-04 20:54 37.31602 -4.88797 36910 ft 431 kts 198°
2026-05-04 20:54 37.28626 -4.89396 36004 ft 436 kts 197°
2026-05-04 20:54 37.25610 -4.90003 35118 ft 441 kts 197°
2026-05-04 20:54 37.22576 -4.90611 34241 ft 441 kts 196°
2026-05-04 20:55 37.19537 -4.91214 32752 ft 444 kts 196°
2026-05-04 20:55 37.16473 -4.91822 31158 ft 449 kts 196°
2026-05-04 20:55 37.13372 -4.92439 29405 ft 454 kts 196°
2026-05-04 20:55 37.10233 -4.93064 27435 ft 460 kts 195°
2026-05-04 20:56 37.07087 -4.93679 26264 ft 452 kts 193°
2026-05-04 20:56 37.03974 -4.93922 25143 ft 448 kts 185°
2026-05-04 20:56 37.00852 -4.93760 24030 ft 449 kts 183°
2026-05-04 20:56 36.97741 -4.93586 22827 ft 444 kts 183°
2026-05-04 20:57 36.94679 -4.93414 21923 ft 438 kts 183°
2026-05-04 20:57 36.91654 -4.93249 21102 ft 433 kts 183°
2026-05-04 20:57 36.88666 -4.93092 20260 ft 427 kts 182°
2026-05-04 20:57 36.85718 -4.92943 19485 ft 421 kts 182°
2026-05-04 20:58 36.82813 -4.92799 18705 ft 415 kts 182°
2026-05-04 20:58 36.79948 -4.92658 17881 ft 409 kts 182°
2026-05-04 20:58 36.77116 -4.92517 17153 ft 405 kts 182°
2026-05-04 20:58 36.74313 -4.92376 16445 ft 401 kts 182°
2026-05-04 20:59 36.71535 -4.92233 15759 ft 398 kts 182°
2026-05-04 20:59 36.68781 -4.92090 15092 ft 395 kts 182°
2026-05-04 20:59 36.66048 -4.91949 14439 ft 391 kts 182°
2026-05-04 20:59 36.63342 -4.91810 13793 ft 388 kts 182°
2026-05-04 21:00 36.60653 -4.91672 13145 ft 385 kts 182°
2026-05-04 21:00 36.57988 -4.91535 12537 ft 381 kts 182°
2026-05-04 21:00 36.55349 -4.91403 11915 ft 378 kts 182°
2026-05-04 21:00 36.52727 -4.91270 11310 ft 373 kts 182°
2026-05-04 21:01 36.50179 -4.91136 11059 ft 358 kts 182°
2026-05-04 21:01 36.47790 -4.91006 10928 ft 329 kts 182°
2026-05-04 21:01 36.45589 -4.90883 10786 ft 305 kts 183°
2026-05-04 21:01 36.43544 -4.90776 10496 ft 292 kts 183°
2026-05-04 21:02 36.41526 -4.90678 10259 ft 289 kts 183°
2026-05-04 21:02 36.39524 -4.90584 10013 ft 287 kts 183°
2026-05-04 21:02 36.37537 -4.90487 9879 ft 285 kts 184°
2026-05-04 21:02 36.35552 -4.90388 9747 ft 285 kts 183°
2026-05-04 21:03 36.33573 -4.90288 9621 ft 284 kts 183°
2026-05-04 21:03 36.31603 -4.90187 9490 ft 283 kts 182°
2026-05-04 21:03 36.29634 -4.90088 9364 ft 283 kts 182°
2026-05-04 21:03 36.27665 -4.89989 9231 ft 283 kts 183°
2026-05-04 21:04 36.25697 -4.89891 9102 ft 283 kts 182°
2026-05-04 21:04 36.23728 -4.89789 8924 ft 283 kts 182°
2026-05-04 21:04 36.21768 -4.89685 8572 ft 281 kts 182°
2026-05-04 21:04 36.19820 -4.89582 8197 ft 280 kts 181°
2026-05-04 21:05 36.17883 -4.89481 7814 ft 278 kts 183°
2026-05-04 21:05 36.15954 -4.89381 7441 ft 276 kts 183°
2026-05-04 21:05 36.14092 -4.89524 7078 ft 258 kts 205°
2026-05-04 21:05 36.12714 -4.90709 6770 ft 233 kts 237°
2026-05-04 21:06 36.12161 -4.92482 6476 ft 219 kts 267°
2026-05-04 21:06 36.12297 -4.94361 6198 ft 221 kts 277°
2026-05-04 21:06 36.12511 -4.96246 5887 ft 221 kts 277°
2026-05-04 21:06 36.12723 -4.98121 5587 ft 218 kts 277°
2026-05-04 21:07 36.12930 -4.99966 5305 ft 217 kts 277°
2026-05-04 21:07 36.13134 -5.01800 5033 ft 213 kts 277°
2026-05-04 21:07 36.13335 -5.03617 4773 ft 213 kts 277°
2026-05-04 21:07 36.13536 -5.05440 4495 ft 216 kts 278°
2026-05-04 21:08 36.13736 -5.07265 4224 ft 213 kts 278°
2026-05-04 21:08 36.13936 -5.09079 3955 ft 212 kts 279°
2026-05-04 21:08 36.14135 -5.10874 3676 ft 210 kts 280°
2026-05-04 21:08 36.14330 -5.12658 3394 ft 209 kts 280°
2026-05-04 21:09 36.14522 -5.14432 3118 ft 207 kts 280°
2026-05-04 21:09 36.14714 -5.16195 2852 ft 206 kts 280°
2026-05-04 21:09 36.14906 -5.17949 2588 ft 205 kts 279°
2026-05-04 21:09 36.15092 -5.19658 2415 ft 196 kts 279°
2026-05-04 21:10 36.15265 -5.21257 2140 ft 182 kts 279°
2026-05-04 21:10 36.15426 -5.22758 1880 ft 170 kts 279°
2026-05-04 21:10 36.15489 -5.24143 1651 ft 154 kts 269°
2026-05-04 21:10 36.15438 -5.25395 1456 ft 139 kts 270°
2026-05-04 21:11 36.15397 -5.26565 1288 ft 133 kts 270°
2026-05-04 21:11 36.15360 -5.27696 1093 ft 130 kts 269°
2026-05-04 21:11 36.15324 -5.28805 915 ft 128 kts 269°
2026-05-04 21:11 36.15288 -5.29917 734 ft 131 kts 268°
2026-05-04 21:12 36.15251 -5.31028 555 ft 129 kts 268°
2026-05-04 21:12 36.15211 -5.32128 394 ft 127 kts 268°
2026-05-04 21:12 36.15192 -5.33218 201 ft 127 kts 266°
2026-05-04 21:12 36.15144 -5.34320 35 ft 127 kts 267°
2026-05-04 21:13 36.15119 -5.35126 23 ft 69 kts 267°
2026-05-04 21:13 36.15101 -5.35611 20 ft 27 kts 268°
2026-05-04 21:13 36.15088 -5.35761 18 ft 17 kts 270°
2026-05-04 21:13 36.15065 -5.35903 18 ft 16 kts 259°
2026-05-04 21:14 36.15087 -5.35942 17 ft 2 kts 46°
2026-05-04 21:14 36.15093 -5.35832 19 ft 29 kts 86°
2026-05-04 21:14 36.15106 -5.35486 22 ft 43 kts 88°
2026-05-04 21:14 36.15117 -5.35139 23 ft 41 kts 88°
2026-05-04 21:15 36.15127 -5.34783 24 ft 42 kts 88°
2026-05-04 21:15 36.15158 -5.34675 20 ft 5 kts
2026-05-04 21:15 36.15189 -5.34679 21 ft 6 kts 356°
2026-05-04 21:15 36.15214 -5.34675 21 ft 0 kts 11°
2026-05-04 21:16 36.15215 -5.34675 21 ft 1 kts 11°
2026-05-04 21:16 36.15249 -5.34673 18 ft 9 kts 359°
2026-05-04 21:16 36.15291 -5.34674 17 ft 3 kts 357°
2026-05-04 21:17 36.15307 -5.34675 17 ft 0 kts 358°